TimeMDT,TemperatureF,Dew PointF,Humidity,Sea Level PressureIn,VisibilityMPH,Wind Direction,Wind SpeedMPH,Gust SpeedMPH,PrecipitationIn,Events,Conditions,WindDirDegrees,DateUTC
12:53 AM,30.0,27.0,88,30.68,10.0,Calm,Calm,-,N/A,,Overcast,0,2013-05-02 06:53:00
1:53 AM,30.9,27.0,85,30.69,10.0,NNW,4.6,-,N/A,,Overcast,330,2013-05-02 07:53:00
2:53 AM,30.0,26.1,85,30.70,10.0,NNW,5.8,-,N/A,,Overcast,340,2013-05-02 08:53:00
3:53 AM,28.9,25.0,85,30.71,10.0,NNW,3.5,-,N/A,,Overcast,340,2013-05-02 09:53:00
4:53 AM,30.0,26.1,85,30.71,10.0,NW,8.1,-,N/A,,Mostly Cloudy,320,2013-05-02 10:53:00
5:53 AM,30.0,25.0,82,30.73,10.0,NW,11.5,-,N/A,,Scattered Clouds,320,2013-05-02 11:53:00
6:53 AM,30.0,26.1,85,30.76,10.0,NNW,10.4,-,N/A,,Mostly Cloudy,330,2013-05-02 12:53:00
7:53 AM,30.9,25.0,79,30.76,10.0,NW,12.7,-,N/A,,Overcast,320,2013-05-02 13:53:00
8:53 AM,35.1,27.0,72,30.74,10.0,NW,11.5,-,N/A,,Partly Cloudy,320,2013-05-02 14:53:00
9:53 AM,37.0,28.0,70,30.74,10.0,NW,12.7,-,N/A,,Clear,320,2013-05-02 15:53:00
10:53 AM,43.0,30.9,62,30.73,10.0,NW,10.4,-,N/A,,Clear,320,2013-05-02 16:53:00
11:53 AM,46.0,28.9,51,30.71,10.0,NW,13.8,-,N/A,,Clear,310,2013-05-02 17:53:00
12:53 PM,46.9,24.1,41,30.67,10.0,NW,11.5,24.2,N/A,,Partly Cloudy,310,2013-05-02 18:53:00
1:53 PM,48.9,26.1,41,30.65,10.0,NNW,13.8,25.3,N/A,,Scattered Clouds,330,2013-05-02 19:53:00
2:53 PM,48.9,23.0,36,30.62,10.0,WNW,12.7,-,N/A,,Partly Cloudy,300,2013-05-02 20:53:00
3:53 PM,51.1,19.0,28,30.58,10.0,North,11.5,-,N/A,,Clear,350,2013-05-02 21:53:00
4:53 PM,51.1,21.0,31,30.56,10.0,NNW,10.4,-,N/A,,Clear,330,2013-05-02 22:53:00
5:53 PM,48.0,21.0,34,30.55,10.0,NNW,12.7,-,N/A,,Clear,330,2013-05-02 23:53:00
6:53 PM,48.9,21.0,33,30.52,10.0,NW,10.4,-,N/A,,Partly Cloudy,310,2013-05-03 00:53:00
7:53 PM,44.1,25.0,47,30.52,10.0,West,3.5,-,N/A,,Clear,280,2013-05-03 01:53:00
8:53 PM,41.0,25.0,53,30.53,10.0,Calm,Calm,-,N/A,,Clear,0,2013-05-03 02:53:00
9:53 PM,39.0,26.1,60,30.52,10.0,Calm,Calm,-,N/A,,Clear,0,2013-05-03 03:53:00
10:53 PM,35.1,27.0,72,30.49,10.0,SW,3.5,-,N/A,,Clear,230,2013-05-03 04:53:00
11:53 PM,33.1,26.1,75,30.47,10.0,WSW,6.9,-,N/A,,Clear,240,2013-05-03 05:53:00